| time (UTC) | temp F | wind direction | speed knots | gust knots | rain 1hr in | rain 24hr in | rain mn in | humidity % | barometer mb |
| 20260506202015 | 56 | 198 | 4.3 | 10.4 | 0.00 | 0.00 | 0.00 | 86 | 1006.3 |
| 20260506201534 | 57 | 177 | 3.5 | 8.7 | 0.00 | 0.00 | 0.00 | 84 | 1006.4 |
| 20260506201013 | 58 | 183 | 4.3 | 8.7 | 0.00 | 0.00 | 0.00 | 83 | 1006.5 |
| 20260506200511 | 60 | 153 | 3.5 | 8.7 | 0.00 | 0.00 | 0.00 | 81 | 1006.5 |
| 20260506200039 | 62 | 186 | 4.3 | 12.2 | 0.00 | 0.00 | 0.00 | 77 | 1006.5 |
| 20260506195515 | 66 | 180 | 6.1 | 12.2 | 0.00 | 0.00 | 0.00 | 75 | 1006.5 |
| 20260506195015 | 66 | 261 | 6.1 | 13.0 | 0.00 | 0.00 | 0.00 | 80 | 1006.5 |
| 20260506194534 | 66 | 311 | 7.0 | 13.0 | 0.00 | 0.00 | 0.00 | 81 | 1006.5 |
| 20260506194012 | 66 | 291 | 7.0 | 13.0 | 0.00 | 0.00 | 0.00 | 81 | 1006.6 |
| 20260506193510 | 65 | 273 | 5.2 | 13.0 | 0.00 | 0.00 | 0.00 | 82 | 1006.7 |
| 20260506193030 | 65 | 236 | 5.2 | 13.0 | 0.00 | 0.00 | 0.00 | 83 | 1006.7 |
| 20260506192509 | 64 | 282 | 3.5 | 11.3 | 0.00 | 0.00 | 0.00 | 86 | 1006.9 |
| 20260506192010 | 63 | 205 | 3.5 | 10.4 | 0.00 | 0.00 | 0.00 | 87 | 1006.9 |
| 20260506191530 | 62 | 246 | 2.6 | 13.0 | 0.00 | 0.00 | 0.00 | 88 | 1006.9 |
| 20260506191010 | 62 | 221 | 5.2 | 13.0 | 0.00 | 0.00 | 0.00 | 90 | 1006.8 |
| 20260506190510 | 61 | 225 | 5.2 | 13.0 | 0.00 | 0.00 | 0.00 | 92 | 1007.0 |
| 20260506190030 | 57 | 216 | 4.3 | 9.6 | 0.00 | 0.00 | 0.00 | 91 | 1007.1 |
| 20260506185511 | 56 | 178 | 4.3 | 8.7 | 0.00 | 0.00 | 0.00 | 89 | 1007.0 |
| 20260506185011 | 56 | 360 | 4.3 | 14.8 | 0.00 | 0.00 | 0.00 | 89 | 1007.0 |
| 20260506184529 | 56 | 236 | 4.3 | 14.8 | 0.00 | 0.00 | 0.00 | 90 | 1007.0 |
| 20260506184013 | 55 | 182 | 7.8 | 13.0 | 0.00 | 0.00 | 0.00 | 90 | 1007.1 |
| 20260506183511 | 55 | 209 | 7.0 | 13.9 | 0.00 | 0.00 | 0.00 | 89 | 1007.1 |
| 20260506183034 | 55 | 192 | 7.8 | 17.4 | 0.00 | 0.00 | 0.00 | 90 | 1007.2 |
| 20260506182509 | 55 | 173 | 7.8 | 17.4 | 0.00 | 0.00 | 0.00 | 89 | 1007.3 |
| 20260506182016 | 56 | 192 | 7.8 | 14.8 | 0.00 | 0.00 | 0.00 | 89 | 1007.3 |
| 20260506181531 | 55 | 168 | 8.7 | 14.8 | 0.00 | 0.00 | 0.00 | 90 | 1007.3 |
| 20260506181009 | 55 | 177 | 7.8 | 14.8 | 0.00 | 0.00 | 0.00 | 91 | 1007.2 |
| 20260506180510 | 54 | 203 | 7.0 | 14.8 | 0.00 | 0.00 | 0.00 | 91 | 1007.3 |
| 20260506180034 | 54 | 179 | 6.1 | 14.8 | 0.00 | 0.00 | 0.00 | 90 | 1007.5 |
| 20260506175511 | 54 | 205 | 7.0 | 14.8 | 0.00 | 0.00 | 0.00 | 90 | 1007.6 |
| 20260506175009 | 54 | 205 | 7.0 | 13.9 | 0.00 | 0.00 | 0.00 | 90 | 1007.6 |
| 20260506174529 | 54 | 207 | 7.8 | 14.8 | 0.00 | 0.00 | 0.00 | 91 | 1007.7 |
| 20260506174011 | 54 | 221 | 7.8 | 14.8 | 0.00 | 0.00 | 0.00 | 90 | 1007.8 |
| 20260506173512 | 54 | 165 | 7.0 | 13.9 | 0.00 | 0.00 | 0.00 | 91 | 1007.8 |
| 20260506173038 | 54 | 219 | 7.8 | 14.8 | 0.00 | 0.00 | 0.00 | 90 | 1007.8 |
| 20260506172511 | 54 | 192 | 7.0 | 14.8 | 0.00 | 0.00 | 0.00 | 91 | 1007.7 |
| 20260506172012 | 54 | 193 | 7.8 | 13.9 | 0.00 | 0.00 | 0.00 | 90 | 1007.9 |
| 20260506171531 | 55 | 176 | 7.0 | 13.9 | 0.00 | 0.00 | 0.00 | 89 | 1007.8 |
| 20260506171011 | 55 | 189 | 7.8 | 13.9 | 0.00 | 0.00 | 0.00 | 88 | 1008.1 |
| 20260506170509 | 56 | 148 | 7.0 | 14.8 | 0.00 | 0.00 | 0.00 | 88 | 1008.0 |
| 20260506170031 | 56 | 159 | 6.1 | 14.8 | 0.00 | 0.00 | 0.00 | 88 | 1008.1 |
| 20260506165510 | 56 | 199 | 7.0 | 13.9 | 0.00 | 0.00 | 0.00 | 87 | 1008.3 |
| 20260506165011 | 57 | 172 | 6.1 | 11.3 | 0.00 | 0.00 | 0.00 | 87 | 1008.6 |
| 20260506164530 | 56 | 211 | 6.1 | 12.2 | 0.00 | 0.00 | 0.00 | 87 | 1008.6 |
| 20260506164010 | 57 | 360 | 5.2 | 12.2 | 0.00 | 0.00 | 0.00 | 87 | 1008.6 |
| 20260506163515 | 57 | 192 | 6.1 | 11.3 | 0.00 | 0.00 | 0.00 | 88 | 1008.9 |
| 20260506163030 | 57 | 162 | 6.1 | 13.0 | 0.00 | 0.00 | 0.00 | 87 | 1008.9 |
| 20260506162510 | 57 | 155 | 6.1 | 16.5 | 0.00 | 0.00 | 0.00 | 87 | 1009.0 |
| 20260506162010 | 57 | 130 | 6.1 | 16.5 | 0.00 | 0.00 | 0.00 | 88 | 1009.0 |
| 20260506161533 | 56 | 194 | 6.1 | 13.0 | 0.00 | 0.00 | 0.00 | 88 | 1009.2 |
| 20260506161008 | 56 | 157 | 7.8 | 16.5 | 0.00 | 0.00 | 0.00 | 88 | 1009.0 |
| 20260506160513 | 56 | 189 | 6.1 | 16.5 | 0.00 | 0.00 | 0.00 | 88 | 1009.1 |
| 20260506160032 | 56 | 200 | 7.0 | 14.8 | 0.00 | 0.00 | 0.00 | 87 | 1008.9 |
| 20260506155514 | 56 | 217 | 8.7 | 14.8 | 0.00 | 0.00 | 0.00 | 87 | 1008.9 |
| 20260506155015 | 56 | 172 | 8.7 | 16.5 | 0.00 | 0.00 | 0.00 | 87 | 1009.1 |
| 20260506154538 | 56 | 184 | 8.7 | 17.4 | 0.00 | 0.00 | 0.00 | 86 | 1009.2 |
| 20260506154010 | 56 | 169 | 7.8 | 17.4 | 0.00 | 0.00 | 0.00 | 86 | 1009.1 |
| 20260506153512 | 56 | 196 | 7.8 | 14.8 | 0.00 | 0.00 | 0.00 | 87 | 1008.9 |
| 20260506153030 | 56 | 159 | 8.7 | 15.6 | 0.00 | 0.00 | 0.00 | 87 | 1008.9 |
| 20260506152508 | 56 | 174 | 8.7 | 15.6 | 0.00 | 0.00 | 0.00 | 88 | 1009.0 |
| 20260506152012 | 56 | 217 | 8.7 | 16.5 | 0.00 | 0.00 | 0.00 | 88 | 1009.0 |
| 20260506151529 | 56 | 178 | 8.7 | 16.5 | 0.00 | 0.00 | 0.00 | 87 | 1009.1 |
| 20260506151010 | 57 | 187 | 7.8 | 16.5 | 0.00 | 0.00 | 0.00 | 86 | 1009.2 |
| 20260506150509 | 57 | 202 | 8.7 | 16.5 | 0.00 | 0.00 | 0.00 | 86 | 1009.2 |
| 20260506150033 | 57 | 148 | 7.8 | 14.8 | 0.00 | 0.00 | 0.00 | 86 | 1009.2 |
| 20260506145510 | 58 | 231 | 9.6 | 14.8 | 0.00 | 0.00 | 0.00 | 85 | 1009.1 |
| 20260506145012 | 58 | 208 | 8.7 | 15.6 | 0.00 | 0.00 | 0.00 | 85 | 1009.1 |
| 20260506144533 | 58 | 192 | 9.6 | 15.6 | 0.00 | 0.00 | 0.00 | 85 | 1009.2 |
| 20260506144012 | 58 | 189 | 8.7 | 14.8 | 0.00 | 0.00 | 0.00 | 85 | 1009.1 |
| 20260506143516 | 58 | 182 | 7.8 | 16.5 | 0.00 | 0.00 | 0.00 | 86 | 1009.1 |
| 20260506143035 | 58 | 169 | 9.6 | 16.5 | 0.00 | 0.00 | 0.00 | 87 | 1009.2 |
| 20260506142507 | 57 | 167 | 8.7 | 20.0 | 0.00 | 0.00 | 0.00 | 88 | 1009.1 |
| 20260506142011 | 57 | 175 | 8.7 | 20.0 | 0.00 | 0.00 | 0.00 | 86 | 1009.2 |
| 20260506141529 | 57 | 175 | 9.6 | 18.2 | 0.00 | 0.00 | 0.00 | 86 | 1009.2 |
| 20260506141011 | 57 | 175 | 7.8 | 16.5 | 0.00 | 0.00 | 0.00 | 86 | 1009.0 |
| 20260506140512 | 57 | 194 | 7.8 | 16.5 | 0.00 | 0.00 | 0.00 | 84 | 1009.1 |
| 20260506140029 | 58 | 210 | 7.8 | 14.8 | 0.00 | 0.00 | 0.00 | 84 | 1009.1 |
| 20260506135509 | 58 | 242 | 7.0 | 14.8 | 0.00 | 0.00 | 0.00 | 84 | 1009.2 |
| 20260506135009 | 58 | 190 | 7.0 | 14.8 | 0.00 | 0.00 | 0.00 | 83 | 1009.3 |
| 20260506134530 | 59 | 185 | 7.8 | 13.9 | 0.00 | 0.00 | 0.00 | 83 | 1009.3 |
| 20260506134010 | 59 | 200 | 7.0 | 12.2 | 0.00 | 0.00 | 0.00 | 82 | 1009.5 |
| 20260506133515 | 60 | 221 | 7.0 | 11.3 | 0.00 | 0.00 | 0.00 | 79 | 1009.4 |
| 20260506133028 | 62 | 184 | 4.3 | 9.6 | 0.00 | 0.00 | 0.00 | 77 | 1009.4 |
| 20260506132512 | 62 | 214 | 3.5 | 10.4 | 0.00 | 0.00 | 0.00 | 83 | 1009.5 |
| 20260506132016 | 61 | 205 | 5.2 | 10.4 | 0.00 | 0.00 | 0.00 | 81 | 1009.8 |
| 20260506131535 | 62 | 219 | 4.3 | 9.6 | 0.00 | 0.00 | 0.00 | 78 | 1009.6 |
| 20260506131009 | 63 | 171 | 3.5 | 8.7 | 0.00 | 0.00 | 0.00 | 78 | 1009.6 |
| 20260506130516 | 63 | 186 | 3.5 | 8.7 | 0.00 | 0.00 | 0.00 | 79 | 1009.6 |
| 20260506130032 | 63 | 182 | 3.5 | 8.7 | 0.00 | 0.00 | 0.00 | 80 | 1009.5 |
| 20260506125510 | 63 | 211 | 3.5 | 8.7 | 0.00 | 0.00 | 0.00 | 83 | 1009.6 |
| 20260506125013 | 62 | 188 | 3.5 | 8.7 | 0.00 | 0.00 | 0.00 | 84 | 1009.5 |
| 20260506124537 | 61 | 172 | 3.5 | 8.7 | 0.00 | 0.00 | 0.00 | 83 | 1009.4 |
| 20260506124007 | 61 | 171 | 3.5 | 8.7 | 0.00 | 0.00 | 0.00 | 82 | 1009.4 |
| 20260506123511 | 62 | 256 | 3.5 | 12.2 | 0.00 | 0.00 | 0.00 | 84 | 1009.5 |
| 20260506123039 | 61 | 182 | 4.3 | 12.2 | 0.00 | 0.00 | 0.00 | 83 | 1009.5 |
| 20260506122510 | 61 | 192 | 4.3 | 12.2 | 0.00 | 0.00 | 0.00 | 83 | 1009.4 |
| 20260506122009 | 62 | 168 | 3.5 | 10.4 | 0.00 | 0.00 | 0.00 | 80 | 1009.7 |
| 20260506121530 | 62 | 229 | 3.5 | 10.4 | 0.00 | 0.00 | 0.00 | 82 | 1009.6 |
| 20260506121009 | 63 | 202 | 3.5 | 10.4 | 0.00 | 0.00 | 0.00 | 82 | 1009.5 |
| 20260506120513 | 63 | 180 | 3.5 | 11.3 | 0.00 | 0.00 | 0.00 | 82 | 1009.6 |
| 20260506120037 | 63 | 145 | 4.3 | 11.3 | 0.00 | 0.00 | 0.00 | 82 | 1009.5 |
| 20260506115510 | 63 | 239 | 4.3 | 10.4 | 0.00 | 0.00 | 0.00 | 82 | 1009.6 |
| 20260506115014 | 62 | 225 | 3.5 | 11.3 | 0.00 | 0.00 | 0.00 | 83 | 1009.7 |
| 20260506114528 | 62 | 192 | 4.3 | 11.3 | 0.00 | 0.00 | 0.00 | 84 | 1009.8 |
| 20260506114009 | 62 | 210 | 4.3 | 10.4 | 0.00 | 0.00 | 0.00 | 84 | 1009.8 |
| 20260506113513 | 61 | 215 | 3.5 | 10.4 | 0.00 | 0.00 | 0.00 | 85 | 1009.8 |
| 20260506113032 | 61 | 186 | 3.5 | 11.3 | 0.00 | 0.00 | 0.00 | 85 | 1009.8 |
| 20260506112512 | 61 | 325 | 4.3 | 11.3 | 0.00 | 0.00 | 0.00 | 85 | 1009.8 |
| 20260506112015 | 61 | 234 | 4.3 | 10.4 | 0.00 | 0.00 | 0.00 | 86 | 1009.7 |
| 20260506111531 | 61 | 294 | 4.3 | 10.4 | 0.00 | 0.00 | 0.00 | 86 | 1009.7 |
| 20260506111010 | 61 | 217 | 4.3 | 10.4 | 0.00 | 0.00 | 0.00 | 86 | 1009.7 |
| 20260506110510 | 60 | 213 | 2.6 | 10.4 | 0.00 | 0.00 | 0.00 | 87 | 1009.7 |
| 20260506110030 | 60 | 180 | 4.3 | 9.6 | 0.00 | 0.00 | 0.00 | 88 | 1009.7 |
| 20260506105510 | 60 | 194 | 5.2 | 10.4 | 0.00 | 0.00 | 0.00 | 88 | 1009.7 |
| 20260506105011 | 59 | 223 | 4.3 | 10.4 | 0.00 | 0.00 | 0.00 | 89 | 1009.6 |
| 20260506104531 | 59 | 180 | 4.3 | 10.4 | 0.00 | 0.00 | 0.00 | 89 | 1009.7 |
| 20260506104009 | 59 | 192 | 4.3 | 10.4 | 0.00 | 0.00 | 0.00 | 89 | 1009.7 |
| 20260506103509 | 59 | 186 | 5.2 | 9.6 | 0.00 | 0.00 | 0.00 | 89 | 1009.7 |
| 20260506103032 | 59 | 252 | 3.5 | 12.2 | 0.00 | 0.00 | 0.00 | 89 | 1009.7 |
| 20260506102511 | 59 | 209 | 5.2 | 12.2 | 0.00 | 0.00 | 0.00 | 89 | 1009.7 |
| 20260506102011 | 59 | 228 | 5.2 | 10.4 | 0.00 | 0.00 | 0.00 | 89 | 1009.4 |
| 20260506101530 | 59 | 176 | 4.3 | 10.4 | 0.00 | 0.00 | 0.00 | 89 | 1009.5 |
| 20260506101010 | 59 | 205 | 3.5 | 9.6 | 0.00 | 0.00 | 0.00 | 88 | 1009.5 |
| 20260506100507 | 60 | 261 | 5.2 | 9.6 | 0.00 | 0.00 | 0.00 | 87 | 1009.5 |
| 20260506100034 | 60 | 189 | 5.2 | 9.6 | 0.00 | 0.00 | 0.00 | 87 | 1009.5 |
| 20260506095513 | 60 | 228 | 4.3 | 10.4 | 0.00 | 0.00 | 0.00 | 87 | 1009.4 |
| 20260506095011 | 60 | 300 | 3.5 | 10.4 | 0.00 | 0.00 | 0.00 | 87 | 1009.5 |
| 20260506094536 | 60 | 173 | 4.3 | 11.3 | 0.00 | 0.00 | 0.00 | 87 | 1009.4 |
| 20260506094010 | 60 | 257 | 4.3 | 11.3 | 0.00 | 0.00 | 0.00 | 87 | 1009.5 |
| 20260506093513 | 60 | 269 | 4.3 | 11.3 | 0.00 | 0.00 | 0.00 | 87 | 1009.5 |
| 20260506093042 | 60 | 258 | 5.2 | 11.3 | 0.00 | 0.00 | 0.00 | 87 | 1009.5 |
| 20260506092510 | 60 | 229 | 4.3 | 10.4 | 0.00 | 0.00 | 0.00 | 87 | 1009.5 |
| 20260506092015 | 60 | 186 | 4.3 | 12.2 | 0.00 | 0.00 | 0.00 | 88 | 1009.6 |
| 20260506091529 | 60 | 225 | 5.2 | 12.2 | 0.00 | 0.00 | 0.00 | 88 | 1009.6 |
| 20260506091010 | 59 | 198 | 4.3 | 12.2 | 0.00 | 0.00 | 0.00 | 88 | 1009.7 |
| 20260506090509 | 59 | 246 | 5.2 | 12.2 | 0.00 | 0.00 | 0.00 | 88 | 1009.5 |
| 20260506090028 | 59 | 205 | 4.3 | 11.3 | 0.00 | 0.00 | 0.00 | 88 | 1009.8 |
| 20260506085508 | 60 | 235 | 4.3 | 11.3 | 0.00 | 0.00 | 0.00 | 87 | 1009.8 |
| 20260506085011 | 60 | 240 | 4.3 | 11.3 | 0.00 | 0.00 | 0.00 | 87 | 1009.8 |
| 20260506084528 | 60 | 181 | 4.3 | 11.3 | 0.00 | 0.00 | 0.00 | 87 | 1009.8 |
| 20260506084012 | 60 | 181 | 4.3 | 12.2 | 0.00 | 0.00 | 0.00 | 88 | 1009.7 |
| 20260506083516 | 59 | 238 | 4.3 | 12.2 | 0.00 | 0.00 | 0.00 | 88 | 1010.0 |
| 20260506083030 | 59 | 244 | 5.2 | 9.6 | 0.00 | 0.00 | 0.00 | 88 | 1009.9 |
| 20260506082515 | 58 | 180 | 4.3 | 9.6 | 0.00 | 0.00 | 0.00 | 88 | 1009.9 |
| 20260506082014 | 58 | 194 | 4.3 | 9.6 | 0.00 | 0.00 | 0.00 | 86 | 1009.8 |
| 20260506081530 | 59 | 215 | 4.3 | 9.6 | 0.00 | 0.00 | 0.00 | 84 | 1009.9 |
| 20260506081011 | 60 | 178 | 4.3 | 12.2 | 0.00 | 0.00 | 0.00 | 84 | 1009.9 |
| 20260506080508 | 61 | 170 | 6.1 | 12.2 | 0.00 | 0.00 | 0.00 | 85 | 1009.9 |
| 20260506073514 | 61 | 238 | 4.3 | 9.6 | 0.00 | 0.00 | 0.00 | 85 | 1009.9 |
| 20260506073030 | 61 | 257 | 5.2 | 10.4 | 0.00 | 0.00 | 0.00 | 85 | 1010.1 |
| 20260506072513 | 61 | 190 | 4.3 | 10.4 | 0.00 | 0.00 | 0.00 | 85 | 1010.0 |
| 20260506072013 | 61 | 204 | 4.3 | 10.4 | 0.00 | 0.00 | 0.00 | 85 | 1010.1 |
| 20260506071528 | 61 | 146 | 3.5 | 10.4 | 0.00 | 0.00 | 0.00 | 84 | 1010.1 |
| 20260506071010 | 61 | 221 | 4.3 | 9.6 | 0.00 | 0.00 | 0.00 | 84 | 1009.9 |
| 20260506070510 | 61 | 205 | 4.3 | 12.2 | 0.00 | 0.00 | 0.00 | 84 | 1010.0 |
| 20260506062511 | 61 | 240 | 5.2 | 13.0 | 0.00 | 0.00 | 0.00 | 83 | 1010.0 |
| 20260506062013 | 61 | 225 | 5.2 | 13.0 | 0.00 | 0.00 | 0.00 | 83 | 1010.0 |
| 20260506061534 | 61 | 220 | 3.5 | 11.3 | 0.00 | 0.00 | 0.00 | 83 | 1009.9 |
| 20260506061014 | 62 | 155 | 4.3 | 13.0 | 0.00 | 0.00 | 0.00 | 83 | 1010.2 |
| 20260506060514 | 62 | 205 | 5.2 | 13.0 | 0.00 | 0.00 | 0.00 | 83 | 1010.0 |
| 20260506051008 | 61 | 169 | 6.1 | 12.2 | 0.00 | 0.00 | 0.00 | 84 | 1010.4 |
| 20260506050509 | 61 | 233 | 4.3 | 11.3 | 0.00 | 0.00 | 0.00 | 84 | 1010.6 |
| 20260506045011 | 61 | 257 | 5.2 | 13.9 | 0.00 | 0.00 | 0.00 | 82 | 1010.7 |
| 20260506044542 | 61 | 231 | 5.2 | 14.8 | 0.00 | 0.00 | 0.00 | 82 | 1010.8 |
| 20260506044011 | 61 | 187 | 5.2 | 14.8 | 0.00 | 0.00 | 0.00 | 82 | 1010.8 |
| 20260506043515 | 61 | 222 | 5.2 | 13.0 | 0.00 | 0.00 | 0.00 | 82 | 1010.8 |
| 20260506043033 | 61 | 207 | 5.2 | 13.0 | 0.00 | 0.00 | 0.00 | 82 | 1010.7 |
| 20260506042512 | 62 | 244 | 5.2 | 11.3 | 0.00 | 0.00 | 0.00 | 81 | 1010.7 |
| 20260506042012 | 62 | 174 | 5.2 | 12.2 | 0.00 | 0.00 | 0.00 | 81 | 1010.7 |
| 20260506041530 | 62 | 236 | 5.2 | 12.2 | 0.00 | 0.00 | 0.00 | 81 | 1010.6 |
| 20260506041009 | 62 | 203 | 5.2 | 12.2 | 0.00 | 0.00 | 0.00 | 81 | 1010.7 |
| 20260506040511 | 62 | 160 | 6.1 | 12.2 | 0.00 | 0.00 | 0.00 | 81 | 1010.6 |
| 20260506040029 | 62 | 184 | 5.2 | 12.2 | 0.00 | 0.00 | 0.00 | 80 | 1010.4 |
| 20260506035510 | 62 | 191 | 6.1 | 12.2 | 0.00 | 0.00 | 0.00 | 80 | 1010.7 |
| 20260506035009 | 62 | 236 | 5.2 | 13.9 | 0.00 | 0.00 | 0.00 | 80 | 1010.7 |
| 20260506034530 | 62 | 193 | 5.2 | 13.9 | 0.00 | 0.00 | 0.00 | 79 | 1010.7 |
| 20260506034012 | 63 | 188 | 4.3 | 12.2 | 0.00 | 0.00 | 0.00 | 79 | 1010.7 |
| 20260506033511 | 63 | 146 | 5.2 | 13.0 | 0.00 | 0.00 | 0.00 | 79 | 1010.8 |
| 20260506033032 | 63 | 232 | 6.1 | 13.0 | 0.00 | 0.00 | 0.00 | 79 | 1010.6 |
| 20260506032510 | 63 | 169 | 6.1 | 13.0 | 0.00 | 0.00 | 0.00 | 79 | 1010.6 |
| 20260506032014 | 63 | 266 | 5.2 | 11.3 | 0.00 | 0.00 | 0.00 | 79 | 1010.6 |
| 20260506031539 | 63 | 173 | 6.1 | 14.8 | 0.00 | 0.00 | 0.00 | 79 | 1010.7 |
| 20260506031013 | 63 | 161 | 5.2 | 14.8 | 0.00 | 0.00 | 0.00 | 79 | 1010.8 |
| 20260506030509 | 63 | 206 | 6.1 | 14.8 | 0.00 | 0.00 | 0.00 | 78 | 1010.8 |
| 20260506030029 | 63 | 204 | 6.1 | 11.3 | 0.00 | 0.00 | 0.00 | 78 | 1010.8 |
| 20260506025511 | 63 | 214 | 5.2 | 12.2 | 0.00 | 0.00 | 0.00 | 78 | 1010.7 |
| 20260506025013 | 63 | 227 | 5.2 | 12.2 | 0.00 | 0.00 | 0.00 | 78 | 1010.7 |
| 20260506024535 | 63 | 204 | 6.1 | 12.2 | 0.00 | 0.00 | 0.00 | 78 | 1010.8 |
| 20260506024010 | 63 | 199 | 5.2 | 11.3 | 0.00 | 0.00 | 0.00 | 78 | 1010.9 |
| 20260506023512 | 63 | 225 | 5.2 | 13.0 | 0.00 | 0.00 | 0.00 | 78 | 1010.8 |
| 20260506023030 | 64 | 229 | 6.1 | 13.0 | 0.00 | 0.00 | 0.00 | 78 | 1011.0 |
| 20260506022512 | 64 | 223 | 4.3 | 13.9 | 0.00 | 0.00 | 0.00 | 78 | 1010.9 |
| 20260506022014 | 64 | 188 | 6.1 | 14.8 | 0.00 | 0.00 | 0.00 | 78 | 1010.9 |
| 20260506021528 | 64 | 205 | 6.1 | 14.8 | 0.00 | 0.00 | 0.00 | 78 | 1010.8 |
| 20260506021009 | 64 | 231 | 5.2 | 12.2 | 0.00 | 0.00 | 0.00 | 77 | 1011.0 |
| 20260506020509 | 64 | 215 | 6.1 | 13.0 | 0.00 | 0.00 | 0.00 | 77 | 1011.0 |
| 20260506020030 | 64 | 246 | 6.1 | 15.6 | 0.00 | 0.00 | 0.00 | 77 | 1010.9 |
| 20260506015511 | 64 | 202 | 6.1 | 15.6 | 0.00 | 0.00 | 0.00 | 77 | 1010.8 |
| 20260506015015 | 64 | 314 | 6.1 | 13.9 | 0.00 | 0.00 | 0.00 | 77 | 1011.0 |
| 20260506014530 | 64 | 253 | 6.1 | 13.0 | 0.00 | 0.00 | 0.00 | 76 | 1010.9 |
| 20260506014009 | 64 | 248 | 6.1 | 15.6 | 0.00 | 0.00 | 0.00 | 76 | 1010.9 |
| 20260506013510 | 65 | 221 | 6.1 | 15.6 | 0.00 | 0.00 | 0.00 | 76 | 1010.8 |
| 20260506013035 | 65 | 171 | 7.0 | 15.6 | 0.00 | 0.00 | 0.00 | 75 | 1010.7 |
| 20260506012510 | 65 | 217 | 7.0 | 15.6 | 0.00 | 0.00 | 0.00 | 75 | 1010.7 |
| 20260506012013 | 65 | 201 | 7.0 | 14.8 | 0.00 | 0.00 | 0.00 | 74 | 1010.5 |
| 20260506011532 | 65 | 248 | 6.1 | 13.9 | 0.00 | 0.00 | 0.00 | 74 | 1010.6 |
| 20260506011011 | 65 | 243 | 6.1 | 16.5 | 0.00 | 0.00 | 0.00 | 73 | 1010.3 |
| 20260506010511 | 65 | 217 | 7.0 | 17.4 | 0.00 | 0.00 | 0.00 | 73 | 1010.3 |
| 20260506010034 | 66 | 241 | 7.0 | 17.4 | 0.00 | 0.00 | 0.00 | 72 | 1010.3 |
| 20260506005509 | 66 | 207 | 7.0 | 15.6 | 0.00 | 0.00 | 0.00 | 71 | 1010.3 |
| 20260506005012 | 66 | 185 | 7.0 | 15.6 | 0.00 | 0.00 | 0.00 | 71 | 1010.3 |
| 20260506004541 | 66 | 211 | 6.1 | 14.8 | 0.00 | 0.00 | 0.00 | 71 | 1010.0 |
| 20260506004010 | 66 | 154 | 6.1 | 14.8 | 0.00 | 0.00 | 0.00 | 71 | 1010.1 |
| 20260506003513 | 66 | 207 | 7.0 | 14.8 | 0.00 | 0.00 | 0.00 | 70 | 1010.0 |
| 20260506003032 | 66 | 173 | 7.0 | 13.0 | 0.00 | 0.00 | 0.00 | 70 | 1010.1 |
| 20260506002510 | 66 | 190 | 5.2 | 13.9 | 0.00 | 0.00 | 0.00 | 70 | 1010.1 |
| 20260506002018 | 66 | 215 | 6.1 | 13.9 | 0.00 | 0.00 | 0.00 | 70 | 1009.9 |
| 20260506001530 | 66 | 183 | 6.1 | 13.0 | 0.00 | 0.00 | 0.00 | 70 | 1010.0 |
| 20260506001012 | 66 | 198 | 7.0 | 13.9 | 0.00 | 0.00 | 0.00 | 70 | 1009.9 |
| 20260506000514 | 66 | 238 | 6.1 | 17.4 | 0.00 | 0.00 | 0.00 | 70 | 1010.0 |
| 20260506000029 | 66 | 171 | 6.1 | 17.4 | 0.00 | 0.00 | 0.00 | 69 | 1009.9 |
| 20260505235509 | 66 | 223 | 7.0 | 14.8 | 0.00 | 0.00 | 0.00 | 69 | 1009.8 |
| 20260505235012 | 67 | 214 | 6.1 | 15.6 | 0.00 | 0.00 | 0.00 | 69 | 1009.8 |
| 20260505234602 | 67 | 262 | 5.2 | 15.6 | 0.00 | 0.00 | 0.00 | 69 | 1009.7 |
| 20260505234011 | 67 | 224 | 5.2 | 13.0 | 0.00 | 0.00 | 0.00 | 69 | 1009.7 |
| 20260505233509 | 67 | 257 | 7.0 | 14.8 | 0.00 | 0.00 | 0.00 | 68 | 1009.6 |
| 20260505233032 | 67 | 239 | 7.0 | 15.6 | 0.00 | 0.00 | 0.00 | 67 | 1009.5 |
| 20260505232509 | 68 | 273 | 7.0 | 15.6 | 0.00 | 0.00 | 0.00 | 66 | 1009.3 |
| 20260505232012 | 68 | 215 | 7.8 | 16.5 | 0.00 | 0.00 | 0.00 | 65 | 1009.5 |
| 20260505231535 | 68 | 210 | 7.8 | 17.4 | 0.00 | 0.00 | 0.00 | 65 | 1009.2 |
| 20260505231009 | 68 | 221 | 8.7 | 18.2 | 0.00 | 0.00 | 0.00 | 65 | 1009.3 |
| 20260505230513 | 69 | 178 | 7.8 | 18.2 | 0.00 | 0.00 | 0.00 | 65 | 1009.2 |
| 20260505230032 | 69 | 215 | 7.0 | 16.5 | 0.00 | 0.00 | 0.00 | 64 | 1009.2 |
| 20260505225512 | 69 | 258 | 7.0 | 16.5 | 0.00 | 0.00 | 0.00 | 64 | 1009.0 |
| 20260505225014 | 69 | 202 | 7.0 | 14.8 | 0.00 | 0.00 | 0.00 | 64 | 1009.0 |
| 20260505224534 | 69 | 163 | 7.0 | 16.5 | 0.00 | 0.00 | 0.00 | 64 | 1008.9 |
| 20260505224014 | 69 | 196 | 7.8 | 17.4 | 0.00 | 0.00 | 0.00 | 64 | 1008.8 |
| 20260505223518 | 69 | 180 | 7.0 | 17.4 | 0.00 | 0.00 | 0.00 | 64 | 1008.9 |
| 20260505223031 | 69 | 153 | 7.0 | 17.4 | 0.00 | 0.00 | 0.00 | 64 | 1008.8 |
| 20260505222511 | 69 | 204 | 7.8 | 16.5 | 0.00 | 0.00 | 0.00 | 64 | 1008.9 |
| 20260505222015 | 69 | 147 | 7.8 | 17.4 | 0.00 | 0.00 | 0.00 | 65 | 1008.7 |
| 20260505221532 | 68 | 239 | 7.8 | 17.4 | 0.00 | 0.00 | 0.00 | 66 | 1008.8 |
| 20260505221010 | 68 | 175 | 8.7 | 17.4 | 0.00 | 0.00 | 0.00 | 66 | 1008.7 |
| 20260505220511 | 68 | 267 | 7.8 | 18.2 | 0.00 | 0.00 | 0.00 | 67 | 1008.7 |
| 20260505220029 | 67 | 223 | 7.0 | 18.2 | 0.00 | 0.00 | 0.00 | 70 | 1008.8 |
| 20260505215508 | 64 | 257 | 7.0 | 14.8 | 0.00 | 0.00 | 0.00 | 73 | 1008.7 |
| 20260505215010 | 63 | 203 | 6.1 | 15.6 | 0.00 | 0.00 | 0.00 | 76 | 1008.6 |
| 20260505214538 | 61 | 360 | 7.8 | 16.5 | 0.00 | 0.00 | 0.00 | 77 | 1008.6 |
| 20260505214011 | 61 | 175 | 9.6 | 16.5 | 0.00 | 0.00 | 0.00 | 77 | 1008.5 |
| 20260505213512 | 61 | 191 | 9.6 | 18.2 | 0.00 | 0.00 | 0.00 | 76 | 1008.4 |
| 20260505213030 | 61 | 360 | 10.4 | 18.2 | 0.00 | 0.00 | 0.00 | 77 | 1008.5 |
| 20260505212509 | 61 | 165 | 11.3 | 18.2 | 0.00 | 0.00 | 0.00 | 77 | 1008.6 |
| 20260505212016 | 61 | 165 | 10.4 | 20.9 | 0.00 | 0.00 | 0.00 | 76 | 1008.4 |
| 20260505211530 | 61 | 171 | 11.3 | 20.9 | 0.00 | 0.00 | 0.00 | 76 | 1008.3 |
| 20260505211012 | 62 | 159 | 10.4 | 20.9 | 0.00 | 0.00 | 0.00 | 75 | 1008.2 |
| 20260505210517 | 62 | 190 | 9.6 | 20.0 | 0.00 | 0.00 | 0.00 | 75 | 1008.3 |
| 20260505210031 | 62 | 127 | 9.6 | 19.1 | 0.00 | 0.00 | 0.00 | 75 | 1008.2 |
| 20260505205512 | 62 | 187 | 9.6 | 18.2 | 0.00 | 0.00 | 0.00 | 75 | 1008.2 |
| 20260505205016 | 62 | 177 | 10.4 | 19.1 | 0.00 | 0.00 | 0.00 | 75 | 1008.2 |
| 20260505204530 | 62 | 193 | 8.7 | 20.9 | 0.00 | 0.00 | 0.00 | 74 | 1008.3 |
| 20260505204009 | 62 | 213 | 11.3 | 20.9 | 0.00 | 0.00 | 0.00 | 74 | 1008.2 |
| 20260505203510 | 62 | 192 | 9.6 | 19.1 | 0.00 | 0.00 | 0.00 | 74 | 1008.2 |
| 20260505203029 | 63 | 182 | 9.6 | 17.4 | 0.00 | 0.00 | 0.00 | 74 | 1008.2 |
| 20260505202510 | 63 | 207 | 8.7 | 18.2 | 0.00 | 0.00 | 0.00 | 73 | 1008.4 |